When you browse on this site, cookies collect data to enhance your experience and personalize the content and advertising you see.
Visit our Privacy Policy to learn more. By continuing to use the site, you agree to this use of cookies and data.
  • In Slovakia
  • List of Countries
  • For 7 days
  • Water Temperature
  • Satellite Maps
  • Weather Map
  • Weather Widgets
  • user-avatar
    Login

    Hourly Weather Kandahar

    Today, 16 July, Tuesday

    Time Temperature Precipitation Wind Pressure Humidity
    00:00 +29°C° 0 mm 1 mps 664 mmHg 9%
    01:00 +28°C° 0 mm 1 mps 664 mmHg 10%
    02:00 +28°C° 0 mm 1 mps 664 mmHg 11%
    03:00 +28°C° 0 mm 1 mps 664 mmHg 11%
    04:00 +27°C° 0 mm 1 mps 665 mmHg 12%
    05:00 +30°C° 0 mm 2 mps 666 mmHg 12%
    06:00 +33°C° 0 mm 3 mps 666 mmHg 12%
    07:00 +35°C° 0 mm 3 mps 667 mmHg 12%
    08:00 +37°C° 0 mm 3 mps 668 mmHg 12%
    09:00 +39°C° 0 mm 3 mps 668 mmHg 11%
    10:00 +41°C° 0 mm 2 mps 668 mmHg 10%
    11:00 +42°C° 0 mm 2 mps 668 mmHg 9%
    12:00 +43°C° 0 mm 2 mps 668 mmHg 7%
    13:00 +46°C° 0 mm 2 mps 668 mmHg 5%
    14:00 +46°C° 0 mm 2 mps 667 mmHg 5%
    15:00 +46°C° 0 mm 2 mps 667 mmHg 5%
    16:00 +46°C° 0 mm 2 mps 667 mmHg 4%
    17:00 +42°C° 0 mm 2 mps 666 mmHg 5%
    18:00 +39°C° 0 mm 2 mps 666 mmHg 6%
    19:00 +34°C° 0 mm 1 mps 665 mmHg 7%
    20:00 +33°C° 0 mm 1 mps 665 mmHg 8%
    21:00 +32°C° 0 mm 1 mps 666 mmHg 9%
    22:00 +31°C° 0 mm 1 mps 666 mmHg 9%
    23:00 +30°C° 0 mm 1 mps 666 mmHg 10%

    Tomorrow, 17 July, Wednesday

    Time Temperature Precipitation Wind Pressure Humidity
    00:00 +29°C° 0 mm 1 mps 666 mmHg 10%
    01:00 +29°C° 0 mm 1 mps 666 mmHg 11%
    02:00 +28°C° 0 mm 1 mps 666 mmHg 13%
    03:00 +27°C° 0 mm 2 mps 666 mmHg 16%
    04:00 +27°C° 0 mm 2 mps 666 mmHg 19%
    05:00 +29°C° 0 mm 2 mps 667 mmHg 22%
    06:00 +30°C° 0 mm 2 mps 668 mmHg 25%
    07:00 +32°C° 0 mm 2 mps 668 mmHg 28%
    08:00 +35°C° 0 mm 2 mps 669 mmHg 23%
    09:00 +38°C° 0 mm 2 mps 669 mmHg 18%
    10:00 +40°C° 0 mm 2 mps 669 mmHg 13%
    11:00 +41°C° 0 mm 2 mps 669 mmHg 10%
    12:00 +44°C° 0 mm 3 mps 669 mmHg 8%
    13:00 +46°C° 0 mm 3 mps 669 mmHg 6%
    14:00 +47°C° 0 mm 4 mps 668 mmHg 5%
    15:00 +47°C° 0 mm 4 mps 668 mmHg 5%
    16:00 +48°C° 0 mm 4 mps 668 mmHg 4%
    17:00 +44°C° 0 mm 4 mps 667 mmHg 5%
    18:00 +40°C° 0 mm 3 mps 667 mmHg 6%
    19:00 +37°C° 0 mm 3 mps 666 mmHg 7%
    20:00 +36°C° 0 mm 3 mps 666 mmHg 7%
    21:00 +35°C° 0 mm 3 mps 666 mmHg 8%
    22:00 +34°C° 0 mm 2 mps 667 mmHg 8%
    23:00 +33°C° 0 mm 3 mps 666 mmHg 9%

    Day after tomorrow, 18 July, Thursday

    Time Temperature Precipitation Wind Pressure Humidity
    00:00 +33°C° 0 mm 3 mps 666 mmHg 10%
    01:00 +31°C° 0 mm 3 mps 666 mmHg 10%
    02:00 +29°C° 0 mm 2 mps 666 mmHg 15%
    03:00 +27°C° 0 mm 2 mps 666 mmHg 19%
    04:00 +26°C° 0 mm 1 mps 666 mmHg 24%
    05:00 +28°C° 0 mm 1 mps 667 mmHg 23%
    06:00 +30°C° 0 mm 1 mps 667 mmHg 23%
    07:00 +32°C° 0 mm 1 mps 668 mmHg 23%
    08:00 +35°C° 0 mm 1 mps 668 mmHg 19%
    09:00 +37°C° 0 mm 1 mps 669 mmHg 15%
    10:00 +40°C° 0 mm 1 mps 669 mmHg 11%
    11:00 +42°C° 0 mm 2 mps 669 mmHg 9%
    12:00 +45°C° 0 mm 3 mps 669 mmHg 7%
    13:00 +48°C° 0 mm 4 mps 668 mmHg 5%
    14:00 +48°C° 0 mm 4 mps 668 mmHg 4%
    15:00 +48°C° 0 mm 5 mps 668 mmHg 4%
    16:00 +48°C° 0 mm 5 mps 667 mmHg 4%
    17:00 +45°C° 0 mm 4 mps 667 mmHg 5%
    18:00 +42°C° 0 mm 4 mps 666 mmHg 5%
    19:00 +39°C° 0 mm 3 mps 666 mmHg 6%
    20:00 +37°C° 0 mm 3 mps 666 mmHg 7%
    21:00 +35°C° 0 mm 2 mps 666 mmHg 8%
    22:00 +32°C° 0 mm 2 mps 666 mmHg 9%
    23:00 +32°C° 0 mm 2 mps 666 mmHg 9%

    19 July, Friday

    Time Temperature Precipitation Wind Pressure Humidity
    00:00 +31°C° 0 mm 2 mps 666 mmHg 10%
    01:00 +30°C° 0 mm 2 mps 665 mmHg 10%
    02:00 +29°C° 0 mm 2 mps 666 mmHg 11%
    03:00 +28°C° 0 mm 2 mps 666 mmHg 11%
    04:00 +28°C° 0 mm 2 mps 666 mmHg 12%
    05:00 +30°C° 0 mm 2 mps 667 mmHg 12%
    06:00 +32°C° 0 mm 2 mps 667 mmHg 12%
    07:00 +35°C° 0 mm 2 mps 668 mmHg 12%
    08:00 +37°C° 0 mm 2 mps 669 mmHg 11%
    09:00 +39°C° 0 mm 2 mps 669 mmHg 11%
    10:00 +41°C° 0 mm 2 mps 669 mmHg 10%
    11:00 +42°C° 0 mm 2 mps 669 mmHg 8%
    12:00 +45°C° 0 mm 2 mps 669 mmHg 7%
    13:00 +47°C° 0 mm 2 mps 668 mmHg 5%
    14:00 +47°C° 0 mm 3 mps 668 mmHg 5%
    15:00 +48°C° 0 mm 3 mps 668 mmHg 4%
    16:00 +49°C° 0 mm 4 mps 668 mmHg 4%
    17:00 +47°C° 0 mm 4 mps 667 mmHg 4%
    18:00 +43°C° 0 mm 4 mps 667 mmHg 5%
    19:00 +41°C° 0 mm 4 mps 667 mmHg 5%
    20:00 +38°C° 0 mm 3 mps 666 mmHg 6%
    21:00 +36°C° 0 mm 2 mps 666 mmHg 7%
    22:00 +32°C° 0 mm 1 mps 666 mmHg 8%
    23:00 +32°C° 0 mm 1 mps 666 mmHg 8%

    20 July, Saturday

    Time Temperature Precipitation Wind Pressure Humidity
    00:00 +31°C° 0 mm 1 mps 666 mmHg 8%
    01:00 +30°C° 0 mm 1 mps 666 mmHg 9%
    02:00 +29°C° 0 mm 1 mps 666 mmHg 11%
    03:00 +29°C° 0 mm 1 mps 666 mmHg 12%
    04:00 +28°C° 0 mm 2 mps 666 mmHg 14%
    05:00 +30°C° 0 mm 2 mps 667 mmHg 16%
    06:00 +34°C° 0 mm 2 mps 668 mmHg 17%
    07:00 +36°C° 0 mm 2 mps 669 mmHg 18%
    08:00 +38°C° 0 mm 2 mps 669 mmHg 17%
    09:00 +40°C° 0 mm 2 mps 669 mmHg 17%
    10:00 +42°C° 0 mm 2 mps 670 mmHg 16%
    11:00 +43°C° 0 mm 2 mps 669 mmHg 13%
    12:00 +46°C° 0 mm 2 mps 669 mmHg 10%
    13:00 +47°C° 0 mm 2 mps 669 mmHg 8%
    14:00 +48°C° 0 mm 3 mps 669 mmHg 7%
    15:00 +48°C° 0 mm 3 mps 668 mmHg 6%
    16:00 +50°C° 0 mm 4 mps 668 mmHg 5%
    17:00 +47°C° 0 mm 4 mps 667 mmHg 5%
    18:00 +45°C° 0 mm 5 mps 667 mmHg 5%
    19:00 +42°C° 0 mm 5 mps 666 mmHg 6%
    20:00 +40°C° 0 mm 4 mps 667 mmHg 6%
    21:00 +38°C° 0 mm 4 mps 667 mmHg 7%
    22:00 +36°C° 0 mm 3 mps 667 mmHg 7%
    23:00 +35°C° 0 mm 3 mps 667 mmHg 8%

    21 July, Sunday

    Time Temperature Precipitation Wind Pressure Humidity
    00:00 +34°C° 0 mm 2 mps 666 mmHg 9%
    01:00 +31°C° 0 mm 2 mps 666 mmHg 9%
    02:00 +31°C° 0 mm 2 mps 666 mmHg 11%
    03:00 +30°C° 0 mm 2 mps 666 mmHg 13%
    04:00 +30°C° 0 mm 2 mps 666 mmHg 15%
    05:00 +31°C° 0 mm 2 mps 667 mmHg 17%
    06:00 +34°C° 0 mm 2 mps 667 mmHg 20%
    07:00 +35°C° 0 mm 2 mps 668 mmHg 22%
    08:00 +37°C° 0 mm 2 mps 668 mmHg 20%
    09:00 +39°C° 0 mm 2 mps 668 mmHg 19%
    10:00 +41°C° 0 mm 2 mps 668 mmHg 18%
    11:00 +42°C° 0 mm 2 mps 668 mmHg 15%
    12:00 +44°C° 0 mm 1 mps 668 mmHg 13%
    13:00 +45°C° 0 mm 1 mps 667 mmHg 11%
    14:00 +46°C° 0 mm 1 mps 667 mmHg 9%
    15:00 +48°C° 0 mm 2 mps 667 mmHg 7%
    16:00 +48°C° 0 mm 2 mps 667 mmHg 5%
    17:00 +46°C° 0 mm 3 mps 666 mmHg 5%
    18:00 +43°C° 0 mm 3 mps 666 mmHg 5%
    19:00 +39°C° 0 mm 3 mps 665 mmHg 5%
    20:00 +38°C° 0 mm 4 mps 665 mmHg 5%
    21:00 +37°C° 0 mm 4 mps 665 mmHg 6%
    22:00 +36°C° 0 mm 5 mps 666 mmHg 6%
    23:00 +35°C° 0 mm 5 mps 665 mmHg 7%
    Show more